Weather History for Cold Lake, AB

Change the Weather History Date:

Wednesday, May 29, 2013

  Actual Average Record
Temperature  
Mean Temperature 61 °F -  
Max Temperature 76 °F 70 °F 76 °F (2013)
Min Temperature 46 °F 47 °F 30 °F (2011)
Degree Days  
Heating Degree Days 4    
Growing Degree Days 11 (Base 50)    
Moisture  
Dew Point 45 °F    
Average Humidity 53    
Maximum Humidity 87    
Minimum Humidity 22    
Precipitation  
Precipitation 0.00 in 0.09 in - ()
Sea Level Pressure  
Sea Level Pressure 29.73 in    
Wind  
Wind Speed 4 mph ()    
Max Wind Speed 12 mph    
Max Gust Speed -    
Visibility 15.0 miles    
Events Fog    
Averages and records for this station are not official NWS values.
T = Trace of Precipitation, MM = Missing Value Source: Averaged Metar Reports

Daily Weather History Graph

Daily Weather History Graph

Search for Another Location

Airport:

Trip Planner

Search our weather history database for the weather conditions in past years. The results will help you decide how hot, cold, wet, or windy it might be!

Date:

Astronomy

May. 29, 2013 Rise Set
Actual Time 4:56 AM MDT 9:41 PM MDT
Civil Twilight 4:04 AM MDT 10:33 PM MDT
Nautical Twilight 2:38 AM MDT 12:01 AM MDT
Astronomical Twilight Sun does not rise Sun does not rise
Moon 12:41 AM MDT 10:28 AM MDT
Length of Visible Light 18h 28m
Length of Day
16h 45m
Waning Gibbous, 72% of the Moon is Illuminated
May 29
Waning Gibbous
May 31
Last Quarter
Jun 8
New
Jun 16
First Quarter
Jun 23
Full

Hourly Weather History & Observations

Time (MDT) Temp. Dew Point Humidity Pressure Visibility Wind Dir Wind Speed Gust Speed Precip Events Conditions
12:00 AM 59 °F 44 °F 47% 29.72 in 15 mi ENE 5.8 mph - -   Scattered Clouds
12:00 AM 59.0 °F 44.6 °F 59% 29.72 in 15.0 mi ENE 5.8 mph - N/A   Scattered Clouds
1:00 AM 55.4 °F 44.6 °F 67% 29.73 in 15.0 mi Calm Calm - N/A   Scattered Clouds
2:00 AM 53.6 °F 44.6 °F 72% 29.73 in 15.0 mi Calm Calm - N/A   Scattered Clouds
3:00 AM 50.0 °F 44.6 °F 82% 29.73 in 15.0 mi Calm Calm - N/A   Partly Cloudy
4:00 AM 48.2 °F 42.8 °F 82% 29.73 in 15.0 mi Calm Calm - N/A   Partly Cloudy
5:00 AM 46.4 °F 42.8 °F 87% 29.73 in 15.0 mi Calm Calm - N/A Fog Shallow Fog
6:00 AM 49 °F 45 °F 80% 29.73 in 15 mi ENE 5.8 mph - - Fog Shallow Fog
6:00 AM 50.0 °F 44.6 °F 82% 29.73 in 15.0 mi ENE 6.9 mph - N/A Fog Shallow Fog
7:00 AM 53.6 °F 48.2 °F 82% 29.73 in 15.0 mi NNE 3.5 mph - N/A   Scattered Clouds
8:00 AM 55.4 °F 46.4 °F 72% 29.73 in 15.0 mi NE 5.8 mph - N/A   Mostly Cloudy
9:00 AM 59.0 °F 48.2 °F 67% 29.74 in 15.0 mi ENE 4.6 mph - N/A   Mostly Cloudy
10:00 AM 68.0 °F 48.2 °F 49% 29.72 in 15.0 mi East 4.6 mph - N/A   Scattered Clouds
11:00 AM 69.8 °F 50.0 °F 49% 29.73 in 15.0 mi ENE 5.8 mph - N/A   Partly Cloudy
12:00 PM 74 °F 44 °F 23% 29.72 in 15 mi East 5.8 mph - -   Scattered Clouds
12:00 PM 73.4 °F 44.6 °F 36% 29.72 in 15.0 mi ESE 6.9 mph - N/A   Partly Cloudy
1:00 PM 75.2 °F 42.8 °F 31% 29.71 in 15.0 mi Calm Calm - N/A   Scattered Clouds
2:00 PM 73.4 °F 42.8 °F 33% 29.72 in 15.0 mi SSW 10.4 mph - N/A   Mostly Cloudy
3:00 PM 73.4 °F 46.4 °F 38% 29.73 in 15.0 mi WSW 6.9 mph - N/A   Mostly Cloudy
4:00 PM 75.2 °F 44.6 °F 34% 29.72 in 15.0 mi East 2.3 mph - N/A   Scattered Clouds
5:00 PM 75.2 °F 44.6 °F 34% 29.73 in 15.0 mi ESE 11.5 mph - N/A   Scattered Clouds
6:00 PM 75 °F 44 °F 22% 29.73 in 15 mi East 9.2 mph - -   Scattered Clouds
6:00 PM 75.2 °F 44.6 °F 34% 29.73 in 15.0 mi ESE 9.2 mph - N/A   Scattered Clouds
7:00 PM 75.2 °F 41.0 °F 29% 29.72 in 15.0 mi SE 11.5 mph - N/A   Mostly Cloudy
8:00 PM 69.8 °F 46.4 °F 43% 29.74 in 15.0 mi SSW 9.2 mph - N/A   Mostly Cloudy
9:00 PM 68.0 °F 48.2 °F 49% 29.75 in 15.0 mi NNW 2.3 mph - N/A   Mostly Cloudy
10:00 PM 66.2 °F 48.2 °F 52% 29.76 in 15.0 mi Calm Calm - N/A   Mostly Cloudy
11:00 PM 64.4 °F 48.2 °F 56% 29.77 in 15.0 mi South 4.6 mph - N/A   Mostly Cloudy